Location: Hamayl? Da??
(36.7028°N, 30.1716°E)
Time: 09:21:59
(UTC+00:00)

Vanguard 1 - Pass Details

Date: 23 December 2025
Orbit: 651 x 3820 km, 34.2° (Epoch: 18 January)

Event Time Altitude Azimuth Distance (km) Brightness Sun altitude
Rises 03:43:18 0° 223° (SW) 3,537 12.7 -16.6°
Reaches altitude 10° 03:46:36 10° 208° (SSW) 2,312 11.9 -16.0°
Maximum altitude 03:50:29 22° 157° (SSE) 1,439 11.4 -15.2°
Drops below altitude 10° 03:53:57 10° 104° (ESE) 2,045 13.1 -14.6°
Sets 03:56:39 0° 88° (E) 3,016 14.0 -14.1°
